Lid_Strength_Index
1 1 2 8 12 13 15 13 12 10 10 7 7 8 9 8 10 12 2 0 0 1 0 -0 -1 -2 -2 -2 -2 -2 -2 -2 -2 -2 -2 -2 -2 -2 -2 -2 -2 -2 -2 -2 -2 -1 -1 -1 -1
1 1 8 10 13 16 14 13 11 9 7 6 6 7 8 10 5 4 3 1 1 1 1 1 -1 -2 -2 -2 -2 -2 -2 -2 -2 -2 -2 -2 -2 -2 -2 -2 -2 -2 -2 -2 -2 -2 -2 -2 -1
1 2 11 12 15 15 14 12 9 8 7 7 8 6 7 8 4 4 1 3 2 2 2 1 -1 -2 -2 -2 -2 -2 -2 -2 -2 -2 -2 -2 -2 -2 -2 -2 -2 -2 -2 -2 -1 -1 -1 -1 -1
4 8 11 14 15 13 12 9 8 8 7 6 7 9 5 3 3 2 3 3 4 4 3 0 -2 -2 -2 -2 -2 -2 -2 -2 -2 -2 -2 -2 -2 -2 -2 -2 -2 -2 -1 -1 -1 -1 -1 -1 -2
6 10 14 15 14 13 11 7 8 9 8 8 7 9 8 3 2 2 3 3 4 3 3 1 -2 -2 -2 -2 -2 -2 -1 -1 -1 -1 -0 -1 -1 -1 -1 -0 -0 -0 -1 -1 -1 -1 -1 -1 -0
10 11 17 16 14 12 11 8 7 8 8 7 8 8 8 3 2 3 3 4 3 3 3 1 -2 -2 -2 -2 -1 -1 -1 0 0 0 -0 -0 -0 0 1 1 0 0 0 0 0 0 0 1 1
10 13 16 16 13 14 11 9 8 8 8 8 6 10 6 5 5 5 5 4 4 3 2 1 1 -1 -2 -1 -1 -0 0 1 1 1 1 1 1 1 1 1 1 1 1 0 0 1 1 1 1
8 11 15 15 13 11 10 10 6 7 9 6 5 9 8 4 7 7 7 7 6 4 3 2 2 2 2 2 -0 0 0 1 1 1 1 2 2 1 1 2 1 1 1 1 1 1 1 2 2
6 12 15 14 14 12 10 10 8 8 9 9 7 6 4 4 7 8 8 8 7 6 5 5 3 3 4 3 1 1 1 1 1 3 2 4 5 5 4 2 2 1 2 3 3 3 3 4 5
9 13 12 11 11 11 10 9 8 9 10 8 7 4 4 6 7 8 8 8 8 6 6 5 5 5 5 3 3 4 3 5 6 6 6 6 6 5 5 4 4 4 4 5 4 4 5 7 10
9 11 9 9 8 7 8 9 9 10 11 8 8 6 6 7 7 7 7 8 7 7 5 5 5 5 5 5 5 6 6 6 6 7 6 6 6 7 8 9 10 10 8 11 10 11 11 11 11
11 8 8 8 7 8 8 7 9 10 9 9 5 5 5 7 6 7 7 7 7 7 5 5 5 5 5 5 6 6 6 6 7 7 7 7 8 9 9 10 11 11 11 12 12 12 11 11 11
9 9 7 7 7 8 7 8 9 11 9 5 4 5 6 6 6 6 5 6 7 7 6 5 5 5 5 5 5 6 6 7 7 7 8 8 9 9 10 11 11 12 11 12 11 11 11 11 10
8 8 8 8 8 7 8 9 9 11 5 6 5 6 6 6 6 6 6 6 6 7 6 5 5 5 5 6 5 5 5 6 7 8 8 8 9 10 10 11 11 11 11 11 11 11 11 11 10
7 10 9 8 8 8 8 10 11 8 6 7 6 6 6 6 5 5 6 6 6 6 6 5 5 5 5 5 6 5 5 5 6 7 8 8 9 10 10 11 11 11 11 10 10 11 10 10 10
10 10 13 10 8 8 9 13 11 8 7 7 7 6 6 6 5 5 6 6 7 6 7 6 4 5 6 6 6 6 5 6 6 7 7 8 8 9 10 11 11 11 11 10 11 11 11 11 11
12 15 13 11 8 9 10 13 10 9 7 7 7 7 6 6 6 6 6 7 6 6 7 7 5 6 6 6 6 7 6 6 6 6 7 7 8 8 9 10 10 11 11 11 11 11 11 11 11
15 14 13 12 10 10 11 12 11 9 8 8 8 7 7 7 6 6 6 7 7 6 7 7 7 6 7 7 7 7 7 7 7 6 6 6 7 8 9 9 9 9 10 10 10 11 11 11 11
12 13 13 12 9 11 11 12 11 10 10 9 9 8 8 8 7 7 6 8 7 7 7 8 7 7 7 7 8 8 8 8 7 7 6 6 6 7 8 8 8 9 10 10 10 10 11 11 11
11 13 14 12 10 10 11 11 11 10 11 10 9 9 8 9 9 8 9 9 8 7 7 7 7 7 7 7 7 7 8 8 7 7 6 6 6 6 7 7 8 8 9 9 9 10 11 11 11
13 13 14 12 11 12 11 13 13 11 11 10 9 9 9 8 9 9 10 9 9 8 7 6 6 6 6 6 6 7 7 7 7 7 7 6 6 5 6 7 7 8 8 9 9 10 10 11 11
14 11 11 11 13 17 12 18 14 13 12 11 11 11 10 10 10 10 10 10 9 8 7 6 6 6 6 6 7 7 8 8 7 7 6 6 6 6 6 6 7 7 8 8 9 8 10 11 11
11 10 11 11 14 15 16 17 15 14 14 12 11 12 11 11 10 10 10 9 8 8 7 7 7 6 6 7 7 8 8 8 7 7 7 7 6 6 6 6 6 7 7 8 8 9 9 10 10
9 10 11 13 15 19 17 17 17 15 12 13 12 12 11 10 10 9 9 8 8 8 8 8 7 8 8 8 8 8 8 8 8 8 8 8 7 7 6 6 7 7 7 8 8 8 9 9 9
10 13 18 19 19 19 17 17 16 15 14 13 12 12 11 10 10 9 9 8 8 8 8 9 9 9 9 9 8 8 8 8 8 8 8 8 7 8 9 8 9 9 9 9 9 8 9 9 9
11 13 18 22 21 20 17 19 16 14 13 12 11 12 11 10 10 9 9 8 8 9 9 10 10 10 9 8 8 8 8 8 8 7 8 8 9 10 11 12 12 12 11 11 11 11 11 10 11
12 15 13 18 21 20 19 16 13 13 13 12 11 11 11 11 10 9 9 9 9 10 10 11 10 10 10 8 8 8 8 8 9 10 10 11 12 11 12 12 12 12 12 12 12 13 13 13 12
12 12 17 17 20 21 20 19 19 16 15 13 12 12 12 11 10 10 9 10 10 10 10 11 11 11 10 9 9 9 10 10 11 13 14 14 13 13 13 13 13 13 13 13 13 14 14 14 14
14 15 16 16 17 19 21 19 15 15 14 13 13 12 11 11 10 10 10 10 10 10 11 11 11 11 11 11 11 12 12 13 13 14 14 14 14 14 14 13 13 13 13 13 14 14 13 13 14
14 15 16 18 20 20 20 21 14 14 14 13 13 12 12 11 10 10 10 11 11 11 11 11 12 11 11 11 12 13 14 14 14 14 14 13 14 14 14 14 14 14 14 14 14 14 13 13 14